Time,TemperatureF,DewpointF,PressureIn,WindDirection,WindDirectionDegrees,WindSpeedMPH,WindSpeedGustMPH,Humidity,HourlyPrecipIn,Conditions,Clouds,dailyrainin,SoftwareType,DateUTC
2013-02-18 00:02:00,13.0,9.0,-100.00,ESE,117,1.0,14.0,78,0.00,,,-99.99,,2013-02-18 05:02:00,
2013-02-18 00:11:00,13.0,9.0,-100.00,ESE,121,0.0,14.0,80,0.00,,,-99.99,,2013-02-18 05:11:00,
2013-02-18 00:21:00,13.0,9.0,-100.00,North,358,0.0,14.0,80,0.00,,,-99.99,,2013-02-18 05:21:00,
2013-02-18 00:32:00,12.0,7.0,-100.00,SSE,152,0.0,14.0,80,0.00,,,-99.99,,2013-02-18 05:32:00,
2013-02-18 00:42:00,13.0,9.0,-100.00,NW,316,0.0,14.0,80,0.00,,,-99.99,,2013-02-18 05:42:00,
2013-02-18 00:52:00,11.0,7.0,-100.00,East,88,0.0,14.0,80,0.00,,,-99.99,,2013-02-18 05:52:00,
2013-02-18 01:02:00,11.0,7.0,-100.00,ESE,110,0.0,14.0,81,0.00,,,-99.99,,2013-02-18 06:02:00,
2013-02-18 01:11:00,10.0,7.0,-100.00,SE,146,0.0,14.0,82,0.00,,,-99.99,,2013-02-18 06:11:00,
2013-02-18 01:22:00,11.0,7.0,-100.00,ESE,122,1.0,14.0,81,0.00,,,-99.99,,2013-02-18 06:22:00,
2013-02-18 01:32:00,10.0,7.0,-100.00,ESE,120,0.0,14.0,82,0.00,,,-99.99,,2013-02-18 06:32:00,
2013-02-18 01:42:00,10.0,7.0,-100.00,SE,129,0.0,14.0,82,0.00,,,-99.99,,2013-02-18 06:42:00,
2013-02-18 01:51:00,10.0,7.0,-100.00,SE,146,0.0,14.0,84,0.00,,,-99.99,,2013-02-18 06:51:00,
2013-02-18 02:02:00,10.0,7.0,-100.00,SW,232,0.0,14.0,84,0.00,,,-99.99,,2013-02-18 07:02:00,
2013-02-18 02:11:00,9.0,5.0,-100.00,East,83,0.0,14.0,82,0.00,,,-99.99,,2013-02-18 07:11:00,
2013-02-18 02:22:00,9.0,7.0,-100.00,East,88,0.0,14.0,84,0.00,,,-99.99,,2013-02-18 07:22:00,
2013-02-18 02:32:00,9.0,7.0,-100.00,ESE,114,0.0,14.0,84,0.00,,,-99.99,,2013-02-18 07:32:00,
2013-02-18 02:42:00,9.0,7.0,-100.00,ESE,118,0.0,14.0,84,0.00,,,-99.99,,2013-02-18 07:42:00,
2013-02-18 02:51:00,9.0,7.0,-100.00,NNE,22,0.0,14.0,85,0.00,,,-99.99,,2013-02-18 07:51:00,
2013-02-18 03:01:00,9.0,7.0,-100.00,ENE,62,0.0,0.0,84,0.00,,,-99.99,,2013-02-18 08:01:00,
2013-02-18 03:11:00,9.0,7.0,-100.00,East,101,0.0,0.0,85,0.00,,,-99.99,,2013-02-18 08:11:00,
2013-02-18 03:21:00,9.0,7.0,-100.00,SE,132,0.0,0.0,85,0.00,,,-99.99,,2013-02-18 08:21:00,
2013-02-18 03:32:00,8.0,5.0,-100.00,ESE,114,0.0,0.0,86,0.00,,,-99.99,,2013-02-18 08:32:00,
2013-02-18 03:42:00,8.0,5.0,-100.00,South,169,0.0,0.0,86,0.00,,,-99.99,,2013-02-18 08:42:00,
2013-02-18 03:52:00,8.0,5.0,-100.00,ESE,122,0.0,0.0,85,0.00,,,-99.99,,2013-02-18 08:52:00,
2013-02-18 04:03:00,8.0,5.0,-100.00,SSE,156,0.0,0.0,84,0.00,,,-99.99,,2013-02-18 09:03:00,
2013-02-18 04:11:00,8.0,7.0,-100.00,South,187,0.0,0.0,86,0.00,,,-99.99,,2013-02-18 09:11:00,
2013-02-18 04:22:00,8.0,5.0,-100.00,East,79,0.0,0.0,85,0.00,,,-99.99,,2013-02-18 09:22:00,
2013-02-18 04:32:00,8.0,5.0,-100.00,SE,134,0.0,0.0,85,0.00,,,-99.99,,2013-02-18 09:32:00,
2013-02-18 04:42:00,7.0,5.0,-100.00,SSE,149,1.0,1.0,85,0.00,,,-99.99,,2013-02-18 09:42:00,
2013-02-18 04:52:00,8.0,5.0,-100.00,SSE,166,0.0,1.0,86,0.00,,,-99.99,,2013-02-18 09:52:00,
2013-02-18 05:01:00,8.0,5.0,-100.00,SE,129,0.0,1.0,85,0.00,,,-99.99,,2013-02-18 10:01:00,
2013-02-18 05:11:00,7.0,5.0,-100.00,SE,132,0.0,1.0,85,0.00,,,-99.99,,2013-02-18 10:11:00,
2013-02-18 05:22:00,7.0,5.0,-100.00,ESE,122,0.0,1.0,85,0.00,,,-99.99,,2013-02-18 10:22:00,
2013-02-18 05:32:00,8.0,5.0,-100.00,ESE,121,0.0,1.0,86,0.00,,,-99.99,,2013-02-18 10:32:00,
2013-02-18 05:42:00,7.0,5.0,-100.00,SSE,162,0.0,1.0,86,0.00,,,-99.99,,2013-02-18 10:42:00,
2013-02-18 05:52:00,8.0,5.0,-100.00,SSE,160,0.0,1.0,86,0.00,,,-99.99,,2013-02-18 10:52:00,
2013-02-18 06:02:00,7.0,5.0,-100.00,SSE,160,0.0,1.0,85,0.00,,,-99.99,,2013-02-18 11:02:00,
2013-02-18 06:12:00,7.0,5.0,-100.00,SSE,156,0.0,1.0,85,0.00,,,-99.99,,2013-02-18 11:12:00,
2013-02-18 06:22:00,7.0,5.0,-100.00,SSE,163,0.0,1.0,86,0.00,,,-99.99,,2013-02-18 11:22:00,
2013-02-18 06:32:00,7.0,5.0,-100.00,SSE,151,0.0,1.0,86,0.00,,,-99.99,,2013-02-18 11:32:00,
2013-02-18 06:42:00,7.0,5.0,-100.00,SSW,197,0.0,1.0,86,0.00,,,-99.99,,2013-02-18 11:42:00,
2013-02-18 06:52:00,7.0,5.0,-100.00,SSE,165,1.0,1.0,86,0.00,,,-99.99,,2013-02-18 11:52:00,
2013-02-18 07:02:00,8.0,5.0,-100.00,SSW,207,1.0,1.0,86,0.00,,,-99.99,,2013-02-18 12:02:00,
2013-02-18 07:12:00,8.0,5.0,-100.00,SSE,149,1.0,1.0,86,0.00,,,-99.99,,2013-02-18 12:12:00,
2013-02-18 07:22:00,7.0,5.0,-100.00,ESE,107,0.0,1.0,85,0.00,,,-99.99,,2013-02-18 12:22:00,
2013-02-18 07:32:00,6.0,3.0,-100.00,SSE,158,0.0,1.0,85,0.00,,,-99.99,,2013-02-18 12:32:00,
2013-02-18 07:42:00,7.0,5.0,-100.00,SSW,201,0.0,1.0,86,0.00,,,-99.99,,2013-02-18 12:42:00,
2013-02-18 07:52:00,7.0,5.0,-100.00,SSE,153,0.0,1.0,85,0.00,,,-99.99,,2013-02-18 12:52:00,
2013-02-18 08:03:00,8.0,5.0,-100.00,SW,232,0.0,1.0,86,0.00,,,-99.99,,2013-02-18 13:03:00,
2013-02-18 08:12:00,9.0,7.0,-100.00,East,93,0.0,1.0,85,0.00,,,-99.99,,2013-02-18 13:12:00,
2013-02-18 08:23:00,12.0,9.0,-100.00,SE,134,1.0,1.0,85,0.00,,,-99.99,,2013-02-18 13:23:00,
2013-02-18 08:32:00,13.0,10.0,-100.00,SSE,149,1.0,1.0,85,0.00,,,-99.99,,2013-02-18 13:32:00,
2013-02-18 08:42:00,13.0,10.0,-100.00,SSE,159,1.0,1.0,84,0.00,,,-99.99,,2013-02-18 13:42:00,
2013-02-18 08:53:00,15.0,12.0,-100.00,SSW,193,1.0,1.0,84,0.00,,,-99.99,,2013-02-18 13:53:00,
2013-02-18 09:02:00,16.0,12.0,-100.00,SE,145,1.0,1.0,82,0.00,,,-99.99,,2013-02-18 14:02:00,
2013-02-18 09:11:00,17.0,14.0,-100.00,SE,146,1.0,1.0,81,0.00,,,-99.99,,2013-02-18 14:11:00,
2013-02-18 09:22:00,19.0,14.0,-100.00,SSE,160,1.0,2.0,78,0.00,,,-99.99,,2013-02-18 14:22:00,
2013-02-18 09:33:00,19.0,14.0,-100.00,South,176,2.0,4.0,77,0.00,,,-99.99,,2013-02-18 14:33:00,
2013-02-18 09:42:00,20.0,14.0,-100.00,WSW,240,4.0,4.0,76,0.00,,,-99.99,,2013-02-18 14:42:00,
2013-02-18 09:53:00,21.0,14.0,-100.00,South,184,4.0,4.0,73,0.00,,,-99.99,,2013-02-18 14:53:00,
2013-02-18 10:02:00,22.0,14.0,-100.00,SSE,165,5.0,6.0,69,0.00,,,-99.99,,2013-02-18 15:02:00,
2013-02-18 10:12:00,22.0,14.0,-100.00,SSW,196,4.0,6.0,66,0.00,,,-99.99,,2013-02-18 15:12:00,
2013-02-18 10:22:00,24.0,14.0,-100.00,SSE,168,4.0,6.0,63,0.00,,,-99.99,,2013-02-18 15:22:00,
2013-02-18 10:32:00,24.0,12.0,-100.00,SSE,148,7.0,10.0,58,0.00,,,-99.99,,2013-02-18 15:32:00,
2013-02-18 10:42:00,25.0,12.0,-100.00,SSW,199,6.0,10.0,56,0.00,,,-99.99,,2013-02-18 15:42:00,
2013-02-18 10:52:00,25.0,12.0,-100.00,SW,230,7.0,10.0,55,0.00,,,-99.99,,2013-02-18 15:52:00,
2013-02-18 11:03:00,26.0,12.0,-100.00,SE,144,6.0,10.0,54,0.00,,,-99.99,,2013-02-18 16:03:00,
2013-02-18 11:12:00,27.0,12.0,-100.00,South,189,7.0,10.0,51,0.00,,,-99.99,,2013-02-18 16:12:00,
2013-02-18 11:22:00,28.0,14.0,-100.00,South,180,6.0,10.0,51,0.00,,,-99.99,,2013-02-18 16:22:00,
2013-02-18 11:32:00,29.0,14.0,-100.00,SSW,203,8.0,12.0,50,0.00,,,-99.99,,2013-02-18 16:32:00,
2013-02-18 11:43:00,30.0,14.0,-100.00,SSE,166,7.0,12.0,47,0.00,,,-99.99,,2013-02-18 16:43:00,
2013-02-18 11:52:00,31.0,14.0,-100.00,SSW,199,7.0,12.0,46,0.00,,,-99.99,,2013-02-18 16:52:00,
2013-02-18 12:04:00,31.0,14.0,-100.00,SSE,160,7.0,12.0,46,0.00,,,-99.99,,2013-02-18 17:04:00,
2013-02-18 12:12:00,32.0,14.0,-100.00,SSE,165,9.0,12.0,46,0.00,,,-99.99,,2013-02-18 17:12:00,
2013-02-18 12:22:00,35.0,18.0,-100.00,SE,145,7.0,12.0,46,0.00,,,-99.99,,2013-02-18 17:22:00,
2013-02-18 12:33:00,34.0,16.0,-100.00,SSW,203,9.0,12.0,46,0.00,,,-99.99,,2013-02-18 17:33:00,
2013-02-18 12:42:00,36.0,18.0,-100.00,SSW,200,6.0,12.0,45,0.00,,,-99.99,,2013-02-18 17:42:00,
2013-02-18 12:52:00,35.0,16.0,-100.00,SSW,197,8.0,12.0,44,0.00,,,-99.99,,2013-02-18 17:52:00,
2013-02-18 13:02:00,36.0,16.0,-100.00,SSE,148,9.0,12.0,42,0.00,,,-99.99,,2013-02-18 18:02:00,
2013-02-18 13:12:00,36.0,16.0,-100.00,South,173,7.0,12.0,40,0.00,,,-99.99,,2013-02-18 18:12:00,
2013-02-18 13:23:00,39.0,18.0,-100.00,SE,145,6.0,12.0,41,0.00,,,-99.99,,2013-02-18 18:23:00,
2013-02-18 13:33:00,38.0,16.0,-100.00,South,183,7.0,12.0,40,0.00,,,-99.99,,2013-02-18 18:33:00,
2013-02-18 13:43:00,39.0,18.0,-100.00,SSE,151,6.0,12.0,40,0.00,,,-99.99,,2013-02-18 18:43:00,
2013-02-18 13:52:00,40.0,18.0,-100.00,South,177,9.0,15.0,40,0.00,,,-99.99,,2013-02-18 18:52:00,
2013-02-18 14:03:00,40.0,18.0,-100.00,South,172,8.0,15.0,38,0.00,,,-99.99,,2013-02-18 19:03:00,
2013-02-18 14:13:00,40.0,18.0,-100.00,South,179,9.0,15.0,38,0.00,,,-99.99,,2013-02-18 19:13:00,
2013-02-18 14:22:00,41.0,18.0,-100.00,SSW,201,8.0,15.0,38,0.00,,,-99.99,,2013-02-18 19:22:00,
2013-02-18 14:33:00,41.0,19.0,-100.00,South,173,8.0,15.0,38,0.00,,,-99.99,,2013-02-18 19:33:00,
2013-02-18 14:43:00,43.0,21.0,-100.00,SSE,151,7.0,15.0,41,0.00,,,-99.99,,2013-02-18 19:43:00,
2013-02-18 14:52:00,42.0,19.0,-100.00,South,189,8.0,15.0,38,0.00,,,-99.99,,2013-02-18 19:52:00,
2013-02-18 15:02:00,42.0,21.0,-100.00,South,175,9.0,15.0,40,0.00,,,-99.99,,2013-02-18 20:02:00,
2013-02-18 15:13:00,43.0,21.0,-100.00,SSW,204,6.0,15.0,40,0.00,,,-99.99,,2013-02-18 20:13:00,
2013-02-18 15:23:00,43.0,21.0,-100.00,South,172,6.0,15.0,40,0.00,,,-99.99,,2013-02-18 20:23:00,
2013-02-18 15:33:00,45.0,23.0,-100.00,SSE,163,6.0,15.0,40,0.00,,,-99.99,,2013-02-18 20:33:00,
2013-02-18 15:42:00,43.0,21.0,-100.00,SW,225,11.0,15.0,38,0.00,,,-99.99,,2013-02-18 20:42:00,
2013-02-18 15:52:00,44.0,23.0,-100.00,SSE,168,12.0,15.0,41,0.00,,,-99.99,,2013-02-18 20:52:00,
2013-02-18 16:03:00,44.0,23.0,-100.00,South,177,7.0,15.0,40,0.00,,,-99.99,,2013-02-18 21:03:00,
2013-02-18 16:12:00,44.0,23.0,-100.00,South,182,7.0,15.0,40,0.00,,,-99.99,,2013-02-18 21:12:00,
2013-02-18 16:22:00,44.0,23.0,-100.00,South,183,8.0,15.0,41,0.00,,,-99.99,,2013-02-18 21:22:00,
2013-02-18 16:33:00,45.0,23.0,-100.00,SSE,166,8.0,15.0,40,0.00,,,-99.99,,2013-02-18 21:33:00,
2013-02-18 16:43:00,45.0,21.0,-100.00,SSW,197,6.0,15.0,38,0.00,,,-99.99,,2013-02-18 21:43:00,
2013-02-18 16:52:00,46.0,23.0,-100.00,South,170,7.0,15.0,40,0.00,,,-99.99,,2013-02-18 21:52:00,
2013-02-18 17:13:00,46.0,25.0,-100.00,SSW,197,7.0,15.0,40,0.00,,,-99.99,,2013-02-18 22:13:00,
2013-02-18 17:23:00,46.0,25.0,-100.00,SSW,193,6.0,15.0,40,0.00,,,-99.99,,2013-02-18 22:23:00,
2013-02-18 17:33:00,46.0,25.0,-100.00,South,189,6.0,15.0,41,0.00,,,-99.99,,2013-02-18 22:33:00,
2013-02-18 17:43:00,46.0,25.0,-100.00,South,186,6.0,15.0,41,0.00,,,-99.99,,2013-02-18 22:43:00,
2013-02-18 17:53:00,46.0,25.0,-100.00,South,186,6.0,15.0,41,0.00,,,-99.99,,2013-02-18 22:53:00,
2013-02-18 18:03:00,46.0,25.0,-100.00,SSW,196,4.0,15.0,42,0.00,,,-99.99,,2013-02-18 23:03:00,
2013-02-18 18:12:00,46.0,27.0,-100.00,South,190,5.0,15.0,44,0.00,,,-99.99,,2013-02-18 23:12:00,
2013-02-18 18:23:00,45.0,27.0,-100.00,SSW,194,4.0,15.0,45,0.00,,,-99.99,,2013-02-18 23:23:00,
2013-02-18 18:33:00,45.0,27.0,-100.00,South,179,4.0,15.0,45,0.00,,,-99.99,,2013-02-18 23:33:00,
2013-02-18 18:43:00,45.0,27.0,-100.00,South,173,5.0,15.0,45,0.00,,,-99.99,,2013-02-18 23:43:00,
2013-02-18 18:52:00,45.0,27.0,-100.00,SSE,165,6.0,15.0,46,0.00,,,-99.99,,2013-02-18 23:52:00,
2013-02-18 19:03:00,45.0,27.0,-100.00,South,186,5.0,15.0,47,0.00,,,-99.99,,2013-02-19 00:03:00,
2013-02-18 19:12:00,44.0,27.0,-100.00,South,177,3.0,15.0,49,0.00,,,-99.99,,2013-02-19 00:12:00,
2013-02-18 19:23:00,44.0,27.0,-100.00,SSE,162,2.0,15.0,49,0.00,,,-99.99,,2013-02-19 00:23:00,
2013-02-18 19:35:00,43.0,27.0,-100.00,South,172,2.0,15.0,50,0.00,,,-99.99,,2013-02-19 00:35:00,
2013-02-18 19:43:00,43.0,27.0,-100.00,South,172,2.0,15.0,50,0.00,,,-99.99,,2013-02-19 00:43:00,
2013-02-18 19:53:00,43.0,27.0,-100.00,SSE,163,2.0,15.0,49,0.00,,,-99.99,,2013-02-19 00:53:00,
2013-02-18 20:03:00,43.0,27.0,-100.00,ESE,103,2.0,15.0,50,0.00,,,-99.99,,2013-02-19 01:03:00,
2013-02-18 20:14:00,43.0,27.0,-100.00,South,187,1.0,15.0,50,0.00,,,-99.99,,2013-02-19 01:14:00,
2013-02-18 20:24:00,43.0,27.0,-100.00,SSE,158,2.0,15.0,51,0.00,,,-99.99,,2013-02-19 01:24:00,
2013-02-18 20:35:00,43.0,27.0,-100.00,South,169,2.0,15.0,51,0.00,,,-99.99,,2013-02-19 01:35:00,
2013-02-18 20:44:00,43.0,27.0,-100.00,South,176,3.0,15.0,51,0.00,,,-99.99,,2013-02-19 01:44:00,
2013-02-18 20:54:00,43.0,27.0,-100.00,South,182,2.0,15.0,51,0.00,,,-99.99,,2013-02-19 01:54:00,
2013-02-18 21:04:00,44.0,28.0,-100.00,South,172,4.0,15.0,50,0.00,,,-99.99,,2013-02-19 02:04:00,
2013-02-18 21:14:00,44.0,27.0,-100.00,SSW,211,4.0,15.0,50,0.00,,,-99.99,,2013-02-19 02:14:00,
2013-02-18 21:23:00,44.0,28.0,-100.00,SSE,165,4.0,15.0,51,0.00,,,-99.99,,2013-02-19 02:23:00,
2013-02-18 21:34:00,45.0,28.0,-100.00,South,172,4.0,15.0,51,0.00,,,-99.99,,2013-02-19 02:34:00,
2013-02-18 21:43:00,44.0,28.0,-100.00,South,183,3.0,15.0,51,0.00,,,-99.99,,2013-02-19 02:43:00,
2013-02-18 21:53:00,45.0,28.0,-100.00,South,175,3.0,15.0,51,0.00,,,-99.99,,2013-02-19 02:53:00,
2013-02-18 22:06:00,45.0,28.0,-100.00,South,183,4.0,15.0,51,0.00,,,-99.99,,2013-02-19 03:06:00,
2013-02-18 22:15:00,46.0,30.0,-100.00,SSE,162,6.0,15.0,51,0.00,,,-99.99,,2013-02-19 03:15:00,
2013-02-18 22:25:00,46.0,30.0,-100.00,South,175,5.0,15.0,51,0.00,,,-99.99,,2013-02-19 03:25:00,
2013-02-18 22:34:00,46.0,30.0,-100.00,South,182,6.0,15.0,53,0.00,,,-99.99,,2013-02-19 03:34:00,
2013-02-18 22:44:00,46.0,30.0,-100.00,SSW,193,5.0,15.0,53,0.00,,,-99.99,,2013-02-19 03:44:00,
2013-02-18 23:03:00,47.0,30.0,-100.00,SW,224,6.0,15.0,50,0.00,,,-99.99,,2013-02-19 04:03:00,
2013-02-18 23:14:00,48.0,30.0,-100.00,West,268,7.0,15.0,49,0.00,,,-99.99,,2013-02-19 04:14:00,
2013-02-18 23:24:00,49.0,30.0,-100.00,South,179,11.0,15.0,46,0.00,,,-99.99,,2013-02-19 04:24:00,
2013-02-18 23:34:00,48.0,28.0,-100.00,South,179,8.0,15.0,45,0.00,,,-99.99,,2013-02-19 04:34:00,
2013-02-18 23:44:00,49.0,30.0,-100.00,SW,218,8.0,15.0,46,0.00,,,-99.99,,2013-02-19 04:44:00,
2013-02-18 23:53:00,49.0,28.0,-100.00,SW,216,9.0,15.0,45,0.00,,,-99.99,,2013-02-19 04:53:00,